Terug naar catalogus

ATLAS 5 CENTAUR DEB

LostHEO
NORAD 57594·DEBRIS·🇺🇸 United States

Gelanceerd Oct 17, 2018 vanaf Cape Canaveral Space Force Station

Loading…

Volgende Passages (komende 24 uur)

TLE

VerouderdSource: Space-Track

Epoch: Apr 17, 2024, 00:36 UTC

1 57594U 18079HV  24108.02500253 -.00000053  00000-0  00000-0 0  9996
2 57594  12.1727 100.0962 4561453 192.0084 151.8267  1.87126511 17046

Volg ATLAS 5 CENTAUR DEB in realtime met AllMySat

Download on the App Store